Miscellaneous Local Product
Issued by NWS North Platte, NE

Home | Current Version | Previous Version | Text Only | Print | Product List | Glossary On
Versions: 1 2 3 4 5 6 7 8 9 10 11 12 13 14 15 16 17 18 19 20 21 22 23 24 25 26 27 28 29 30 31 32 33 34 35 36 37 38 39 40 41 42 43 44 45 46 47 48 49 50
000
AXUS43 KLBF 311010
MISLBF


WESTERN AND NORTH CENTRAL NEBRASKA HOURLY WEATHER ROUNDUP
NATIONAL WEATHER SERVICE NORTH PLATTE NE
500 AM CDT SUN AUG 31 2014

***STATIONS NOT REPORTING VARIABLES SUCH AS SKY/WEATHER OR
PRESSURE ARE PROVIDED BY THE NEBRASKA DEPARTMENT OF
ROADS...RAWS...AND APRS NETWORKS...AND ARE NOT UNDER
NATIONAL WEATHER SERVICE QUALITY CONTROL***

...OBSERVATIONS IN AND NEAR THE EASTERN PANHANDLE OF NEBRASKA...

CITY           SKY/WX    TMP DP  RH WIND       PRES   REMARKS
PINE RIDGE     CLEAR     52  51  97 E3        29.76F
CHADRON        CLEAR     54  52  93 W6        29.78S
ALLIANCE       CLEAR     54  50  86 CALM      29.79F
SIDNEY         PTCLDY    59  50  72 NW10      29.87S
WHITECLAY        N/A     52  49  90 S5          N/A
RUSHVILLE        N/A     54  52  94 SW6         N/A
GORDON           N/A     64  55  71 S5          N/A
CRESCENT LAKE    N/A     59  49  69 CALM        N/A
LISCO            N/A     60  54  80 W3          N/A
BIG SPRINGS      N/A     60  56  86 CALM        N/A
$$

...OBSERVATIONS IN NORTH CENTRAL NEBRASKA...

CITY           SKY/WX    TMP DP  RH WIND       PRES   REMARKS
VALENTINE      MOCLDY    66  54  65 NW8       29.72F
THEDFORD       MOCLDY    62  56  81 CALM      29.76R
AINSWORTH      MOCLDY    64  59  85 SW5       29.72S
O`NEILL        PTCLDY    68  62  79 S6        29.72F
ORD            PTCLDY    63  60  90 SE3       29.75F
BROKEN BOW     MOCLDY    64  59  83 SE6       29.75F
SPRINGVIEW       N/A     65  60  83 NW3         N/A
ROSE             N/A     72  64  75 E10         N/A
NEWPORT          N/A     70  63  78 SW5         N/A
COMSTOCK         N/A     70  64  80 S9          N/A
CHAMBERS         N/A     65  61  87 S3          N/A
EWING            N/A     65  62  91 CALM        N/A
$$

...OBSERVATIONS IN SOUTHWEST NEBRASKA AND FAR NORTHEAST COLORADO...

CITY           SKY/WX    TMP DP  RH WIND       PRES   REMARKS
WRAY             N/A     66  52  60 CALM      29.82F
HOLYOKE        FAIR      63  54  72 S5        29.83F
IMPERIAL       MOCLDY    65  53  65 CALM      29.82R
OGALLALA       PTCLDY    56  54  93 CALM      29.80F
NORTH PLATTE   MOCLDY    66  56  70 N5        29.78S
MCCOOK         CLOUDY    79  50  36 S8G25     29.77F
LEXINGTON      MOCLDY    67  59  75 S6        29.77F
PAXTON           N/A     69  58  68 CALM        N/A
SUTHERLAND       N/A     71  63  77 S9          N/A
BRADY            N/A     64  56  77 CALM        N/A
GOTHENBURG       N/A     68  53  58 CALM        N/A
CALLAWAY         N/A     62  58  88 SE10        N/A
$$

...SOME WEATHER OBSERVATIONS FROM AROUND THE REGION...

CITY           SKY/WX    TMP DP  RH WIND       PRES   REMARKS
DENVER         PTCLDY    54  47  77 NE5       29.91F
LARAMIE        CLOUDY    51  45  79 NW13      30.02F
CHEYENNE       LGT RAIN  54  47  77 W7        29.94F
SCOTTSBLUFF    PTCLDY    57  52  83 CALM      29.81F
RAPID CITY     CLEAR     52  51  97 CALM      29.75F
PIERRE         MOCLDY    63  60  90 W12       29.63R
WINNER         FAIR      69  56  62 W10       29.68F
SIOUX FALLS    PTCLDY    67  62  84 S14       29.71F
OMAHA          CLEAR     71  65  81 S13       29.81F
GRAND ISLAND   PTCLDY    68  61  78 S6        29.79F
KANSAS CITY    CLEAR     69  66  90 S9        29.88S
WICHITA        PTCLDY    71  66  84 S9        29.86S
HAYS           MOCLDY    70  61  73 W6        29.86R
LIBERAL        MOCLDY    73  55  53 S13       29.90S
GOODLAND       CLEAR     62  58  86 S10       29.85F
$$



USA.gov is the U.S. government's official web portal to all federal, state and local government web resources and services.